RADUGA 28 [-]

Last updated on June 27, 2019, 3:44 a.m. UTC

1 21821U 91087A   19176.93826972 -.00000359  00000-0  00000+0 0  9996
2 21821  14.9964   1.9407 0005136  59.2593 297.4979  1.00329598100801
UTC
Height (km)
Latitude
Longitude
Inclination
Orbital Period
UTC large
Height (km)
Speed (km/s)
/
Latitude / Longitude
Inclination (degrees)
Orbital Period (minutes)
Azimuth
Elevation
Range (km)
Doppler Factor
iOS Compass Heading
iOS Angle

Next 30 passes for location: Hong Kong

Rise time Rise Azimuth (degrees) Set time Set Azimuth (degrees) Duration Max altitude (degrees)

No matching passes for this satellites